Cruise_ID,Date_UTC,Time_UTC,Date_EST,Time_EST Lattitude,Lattitude,Longitude,Temp_C,Sp_Cond,Sal,pH,ODO,Chlorophyll
12BHM03,5/8/12,14:23,5/8/12,10:23,27.62083,-82.65613,24.54,0.021,0.01,8.31,101.3,1.9
12BHM04,5/8/12,14:28,5/8/12,10:28,27.61818,-82.66973,26.32,54.32,35.9,8.32,92.5,2.5
12BHM05,5/8/12,14:33,5/8/12,10:33,27.61565,-82.68332,26.38,54.26,35.85,8.31,97.7,2.1
12BHM06,5/8/12,14:38,5/8/12,10:38,27.6131,-82.69685,26.39,54.48,36.02,8.3,99.1,2.1
12BHM07,5/8/12,14:43,5/8/12,10:43,27.61047,-82.71032,26.33,54.56,36.08,8.3,99.2,2.2
12BHM08,5/8/12,14:48,5/8/12,10:48,27.60797,-82.724,26.38,54.61,36.11,8.3,99.8,2
12BHM09,5/8/12,14:53,5/8/12,10:53,27.60715,-82.7326,26.32,54.76,36.22,8.3,99,3.1
12BHM10,5/8/12,14:58,5/8/12,10:58,27.60635,-82.74617,26.19,54.77,36.24,8.29,98,1.6
12BHM11,5/8/12,15:03,5/8/12,11:03,27.6088,-82.7597,26.1,54.84,36.29,8.28,99.7,2.8
12BHM12,5/8/12,15:08,5/8/12,11:08,27.61115,-82.7728,25.94,54.81,36.27,8.29,99.7,4.9
12BHM13,5/8/12,15:13,5/8/12,11:13,27.61155,-82.786,25.85,54.79,36.26,8.28,99,1.3
12BHM14,5/8/12,15:18,5/8/12,11:18,27.61015,-82.79925,25.76,54.81,36.28,8.28,99.1,1.3
12BHM15,5/8/12,15:23,5/8/12,11:23,27.60885,-82.81268,25.68,54.84,36.3,8.28,95,1.2
12BHM16,5/8/12,15:28,5/8/12,11:28,27.60752,-82.82622,25.66,54.79,36.27,8.28,99,1
12BHM17,5/8/12,15:33,5/8/12,11:33,27.60673,-82.83977,25.66,54.93,36.37,8.27,99.6,1
12BHM18,5/8/12,15:38,5/8/12,11:38,27.60572,-82.85325,25.68,55,36.42,8.27,99.8,2.2
12BHM19,5/8/12,15:43,5/8/12,11:43,27.6084,-82.86663,25.72,55.02,36.44,8.26,100.4,7.3
12BHM20,5/8/12,15:48,5/8/12,11:48,27.60948,-82.87422,25.66,55.07,36.47,8.27,99.6,1.4
12BHM21,5/8/12,15:53,5/8/12,11:53,27.61257,-82.88748,25.61,55.18,36.55,8.26,95.9,1
12BHM22,5/8/12,15:58,5/8/12,11:58,27.61538,-82.90097,25.66,55.17,36.55,8.27,100.1,2.6
12BHM23,5/8/12,16:03,5/8/12,12:03,27.61825,-82.91435,25.61,55.23,36.6,8.26,100.2,1.4
12BHM24,5/8/12,16:08,5/8/12,12:08,27.62093,-82.92783,25.61,55.22,36.58,8.26,100.2,2.5
12BHM25,5/8/12,16:13,5/8/12,12:13,27.62372,-82.9414,25.58,55.29,36.64,8.26,100,3.8
12BHM26,5/8/12,16:18,5/8/12,12:18,27.62658,-82.95488,25.54,55.31,36.66,8.26,97.3,1.1
12BHM27,5/8/12,16:23,5/8/12,12:23,27.62927,-82.9684,25.57,55.32,36.66,8.26,99.4,1.4
12BHM28,5/8/12,16:28,5/8/12,12:28,27.63215,-82.98185,25.55,55.33,36.67,8.26,99.8,0.9
12BHM29,5/8/12,16:33,5/8/12,12:33,27.63482,-82.99527,25.54,55.32,36.66,8.26,99.5,1.2
12BHM30,5/8/12,16:38,5/8/12,12:38,27.63767,-83.0086,25.52,55.33,36.67,8.26,98.7,0.9
12BHM31,5/8/12,16:43,5/8/12,12:43,27.64033,-83.02205,25.51,55.33,36.67,8.26,98.6,3.3
12BHM32,5/8/12,16:48,5/8/12,12:48,27.64312,-83.03547,25.48,55.35,36.68,8.26,93.9,1
12BHM33,5/8/12,16:53,5/8/12,12:53,27.64515,-83.04903,25.48,55.35,36.69,8.26,96.8,1.1
12BHM34,5/8/12,16:58,5/8/12,12:58,27.64747,-83.0626,25.46,55.35,36.69,8.26,98.2,1.2
12BHM35,5/8/12,17:03,5/8/12,13:03,27.65113,-83.07595,25.42,55.38,36.71,8.26,98.6,0.8
12BHM36,5/8/12,17:08,5/8/12,13:08,27.6544,-83.0894,25.42,55.39,36.72,8.26,98.3,0.6
12BHM37,5/8/12,17:13,5/8/12,13:13,27.65713,-83.10302,25.42,55.39,36.72,8.26,96.6,1.7
12BHM38,5/8/12,17:18,5/8/12,13:18,27.65985,-83.11672,25.41,55.4,36.72,8.26,97.1,1.1
12BHM39,5/8/12,17:23,5/8/12,13:23,27.66272,-83.13035,25.37,55.45,36.76,8.26,98.2,0.7
12BHM40,5/8/12,17:28,5/8/12,13:28,27.66557,-83.14405,25.41,55.44,36.76,8.26,98.7,0.8
12BHM41,5/8/12,17:33,5/8/12,13:33,27.66847,-83.15765,25.36,55.49,36.8,8.26,99.1,0.9
12BHM42,5/8/12,17:38,5/8/12,13:38,27.67117,-83.17137,25.33,55.48,36.79,8.25,99,0.4
12BHM43,5/8/12,17:43,5/8/12,13:43,27.67412,-83.1851,25.33,55.49,36.79,8.25,94,0.9
12BHM44,5/8/12,17:48,5/8/12,13:48,27.67697,-83.19887,25.4,55.51,36.81,8.25,99.1,0.7
12BHM45,5/8/12,17:53,5/8/12,13:53,27.67977,-83.21267,25.41,55.49,36.79,8.26,99.1,1.2
12BHM46,5/8/12,17:58,5/8/12,13:58,27.68252,-83.2265,25.41,55.55,36.84,8.25,99.5,0.3
12BHM47,5/8/12,18:03,5/8/12,14:03,27.68547,-83.24033,25.44,55.56,36.84,8.26,99.4,1.5
12BHM48,5/8/12,18:08,5/8/12,14:08,27.68828,-83.2542,25.43,55.57,36.85,8.26,98.5,1.1
12BHM49,5/8/12,18:13,5/8/12,14:13,27.69112,-83.26807,25.43,55.57,36.85,8.25,97.2,1.2
12BHM50,5/8/12,18:18,5/8/12,14:18,27.694,-83.28195,25.46,55.59,36.87,8.26,99.3,0.3
12BHM51,5/8/12,18:23,5/8/12,14:23,27.69813,-83.29528,25.45,55.61,36.88,8.25,99.5,0.4
12BHM52,5/8/12,18:28,5/8/12,14:28,27.7001,-83.30943,25.46,55.63,36.89,8.25,99.5,1.4
12BHM53,5/8/12,18:33,5/8/12,14:33,27.702,-83.3236,25.5,55.6,36.87,8.25,99.5,3.5
12BHM54,5/8/12,18:38,5/8/12,14:38,27.70538,-83.33743,25.48,55.64,36.9,8.25,95.7,0.8
12BHM55,5/8/12,18:43,5/8/12,14:43,27.7084,-83.35137,25.48,55.66,36.92,8.25,99.1,1
12BHM56,5/8/12,18:48,5/8/12,14:48,27.71118,-83.36545,25.49,55.67,36.93,8.25,99.6,0.9
12BHM57,5/8/12,18:53,5/8/12,14:53,27.71415,-83.37948,25.52,55.63,36.9,8.25,99.6,1.1
12BHM58,5/8/12,18:58,5/8/12,14:58,27.7171,-83.3935,25.51,55.65,36.91,8.25,99.3,0.9
12BHM59,5/8/12,19:03,5/8/12,15:03,27.7199,-83.40758,25.51,55.63,36.9,8.25,99.5,0.8
12BHM60,5/8/12,19:08,5/8/12,15:08,27.72283,-83.42168,25.5,55.64,36.9,8.24,95.5,1
12BHM61,5/8/12,19:13,5/8/12,15:13,27.72572,-83.43578,25.48,55.64,36.9,8.25,98.8,0.6
12BHM62,5/8/12,19:18,5/8/12,15:18,27.72872,-83.44983,25.49,55.6,36.87,8.24,99.1,0.4
12BHM63,5/8/12,19:23,5/8/12,15:23,27.73092,-83.46408,25.49,55.62,36.89,8.24,99.1,1.3
12BHM64,5/8/12,19:28,5/8/12,15:28,27.73178,-83.47852,25.5,55.6,36.88,8.24,98.9,0.6
12BHM65,5/8/12,19:33,5/8/12,15:33,27.73363,-83.49277,25.52,55.6,36.87,8.24,95.9,2.4
12BHM66,5/8/12,19:38,5/8/12,15:38,27.7379,-83.50662,25.51,55.61,36.88,8.24,98.7,0.7
12BHM67,5/8/12,19:43,5/8/12,15:43,27.74222,-83.52045,25.49,55.63,36.9,8.24,99.3,0.7
12BHM68,5/8/12,19:48,5/8/12,15:48,27.74613,-83.53453,25.46,55.65,36.91,8.24,99.9,1.1
12BHM69,5/8/12,19:53,5/8/12,15:53,27.74902,-83.54887,25.46,55.64,36.91,8.24,99.9,0.6
12BHM70,5/8/12,19:58,5/8/12,15:58,27.75208,-83.5632,25.41,55.66,36.92,8.24,99,0.6
12BHM71,5/8/12,20:03,5/8/12,16:03,27.75502,-83.57757,25.44,55.62,36.89,8.24,94.2,0.2
12BHM72,5/8/12,20:08,5/8/12,16:08,27.75797,-83.59192,25.46,55.63,36.9,8.24,99.6,1.3
12BHM73,5/8/12,20:13,5/8/12,16:13,27.76093,-83.60625,25.46,55.63,36.9,8.24,99.7,0.6
12BHM74,5/8/12,20:18,5/8/12,16:18,27.76383,-83.62068,25.45,55.63,36.9,8.24,99.6,0.4
12BHM75,5/8/12,20:23,5/8/12,16:23,27.7669,-83.63505,25.46,55.61,36.88,8.24,99.8,0.9
12BHM76,5/8/12,20:28,5/8/12,16:28,27.76978,-83.6494,25.44,55.61,36.88,8.24,98.5,0.7
12BHM77,5/8/12,20:33,5/8/12,16:33,27.77273,-83.66375,25.42,55.62,36.89,8.25,96.8,0.6
12BHM78,5/8/12,20:38,5/8/12,16:38,27.77578,-83.67808,25.45,55.55,36.84,8.25,98.6,1.5
12BHM79,5/8/12,20:43,5/8/12,16:43,27.77862,-83.69248,25.45,55.54,36.83,8.24,98.6,1
12BHM80,5/8/12,20:48,5/8/12,16:48,27.78173,-83.7068,25.44,55.53,36.82,8.24,98.7,0.6
12BHM81,5/8/12,20:53,5/8/12,16:53,27.78458,-83.72118,25.45,55.56,36.85,8.24,98.9,0.4
12BHM82,5/8/12,20:58,5/8/12,16:58,27.78745,-83.7354,25.5,55.51,36.81,8.24,94.9,0.5
12BHM83,5/8/12,21:03,5/8/12,17:03,27.79048,-83.7497,25.54,55.48,36.78,8.25,98.8,0.9
12BHM84,5/8/12,21:08,5/8/12,17:08,27.79347,-83.76403,25.59,55.44,36.75,8.25,99.4,0.8
12BHM85,5/8/12,21:13,5/8/12,17:13,27.79637,-83.77838,25.62,55.39,36.72,8.26,99.2,1
12BHM86,5/8/12,21:18,5/8/12,17:18,27.79937,-83.7928,25.62,55.34,36.68,8.25,99.2,0.7
12BHM87,5/8/12,21:23,5/8/12,17:23,27.80227,-83.80725,25.62,55.27,36.62,8.26,99,3
12BHM88,5/8/12,21:28,5/8/12,17:28,27.80523,-83.82167,25.63,55.26,36.62,8.26,94.8,0.4
12BHM89,5/8/12,21:33,5/8/12,17:33,27.80832,-83.83607,25.57,55.28,36.63,8.26,98.2,0.9
12BHM90,5/8/12,21:38,5/8/12,17:38,27.81122,-83.85048,25.54,55.27,36.62,8.26,98.8,0.6
12BHM91,5/8/12,21:43,5/8/12,17:43,27.81427,-83.8648,25.52,55.25,36.61,8.26,98.6,0.2
12BHM92,5/8/12,21:48,5/8/12,17:48,27.81715,-83.87917,25.47,55.29,36.64,8.26,98.2,1.4
12BHM93,5/8/12,21:53,5/8/12,17:53,27.8201,-83.89357,25.47,55.28,36.63,8.27,95.2,1.3
12BHM94,5/8/12,21:58,5/8/12,17:58,27.82307,-83.90783,25.55,55.26,36.62,8.27,96.8,0.8
12BHM95,5/8/12,22:03,5/8/12,18:03,27.82593,-83.92213,25.57,55.31,36.65,8.28,98,0.6
12BHM96,5/8/12,22:08,5/8/12,18:08,27.82897,-83.93643,25.59,55.35,36.68,8.29,98,1.1
12BHM97,5/8/12,22:13,5/8/12,18:13,27.83185,-83.95062,25.48,55.39,36.72,8.29,98.2,1.4
12BHM98,5/8/12,22:18,5/8/12,18:18,27.83475,-83.96477,25.37,55.38,36.71,8.29,97.8,0.6
12BHM99,5/8/12,22:23,5/8/12,18:23,27.83772,-83.97902,25.29,55.39,36.72,8.29,92.9,1.2
12BHM100,5/8/12,22:28,5/8/12,18:28,27.84058,-83.99327,25.25,55.38,36.71,8.29,98.2,3.2
12BHM101,5/8/12,22:33,5/8/12,18:33,27.84243,-84.00292,25.27,55.32,36.67,8.29,98.5,0.4
12BHM102,5/8/12,22:38,5/8/12,18:38,27.84513,-84.01468,25.32,55.27,36.63,8.29,98.7,0.5
12BHM103,5/8/12,22:43,5/8/12,18:43,27.84798,-84.0287,25.34,55.24,36.61,8.29,98.7,1.1
12BHM104,5/8/12,22:48,5/8/12,18:48,27.85087,-84.04295,25.35,55.21,36.59,8.3,97.5,3.5
12BHM105,5/8/12,22:53,5/8/12,18:53,27.85378,-84.05693,25.37,55.21,36.58,8.3,97.7,1
12BHM106,5/8/12,22:58,5/8/12,18:58,27.85593,-84.06788,25.43,55.21,36.58,8.3,98.9,4.4
12BHM107,5/8/12,23:03,5/8/12,19:03,27.85838,-84.07907,25.49,55.18,36.56,8.31,98.9,0.5
12BHM108,5/8/12,23:08,5/8/12,19:08,27.86135,-84.09367,25.59,55.27,36.63,8.3,99.1,0.7
12BHM109,5/8/12,23:13,5/8/12,19:13,27.86433,-84.10838,25.72,55.25,36.61,8.31,99.5,0.8
12BHM110,5/8/12,23:18,5/8/12,19:18,27.8674,-84.12318,25.76,55.21,36.58,8.31,93.8,2.9
12BHM111,5/8/12,23:23,5/8/12,19:23,27.8705,-84.1381,25.86,55.25,36.6,8.31,98.3,1
12BHM112,5/8/12,23:28,5/8/12,19:28,27.8735,-84.15295,26.08,55.24,36.59,8.31,99.8,1.2
12BHM113,5/8/12,23:33,5/8/12,19:33,27.87668,-84.16782,26.16,55.23,36.58,8.32,100,0.9
12BHM114,5/8/12,23:38,5/8/12,19:38,27.87965,-84.18268,26.34,55.15,36.51,8.33,100.4,1.3
12BHM115,5/8/12,23:43,5/8/12,19:43,27.88277,-84.19755,26.36,55.28,36.61,8.33,99.7,0.6
12BHM116,5/8/12,23:48,5/8/12,19:48,27.88585,-84.21262,26.21,55.38,36.69,8.33,96.1,0.5
12BHM117,5/8/12,23:53,5/8/12,19:53,27.88898,-84.22758,26.14,55.35,36.67,8.33,100.2,0.9
12BHM118,5/8/12,23:58,5/8/12,19:58,27.89202,-84.24257,26.07,55.39,36.71,8.32,100,0.9
12BHM119,5/9/12,0:03,5/8/12,20:03,27.8951,-84.25753,25.74,55.47,36.77,8.33,99.4,0.4
12BHM120,5/9/12,0:08,5/8/12,20:08,27.89823,-84.27262,25.62,55.37,36.7,8.33,100.1,1.5
12BHM121,5/9/12,0:13,5/8/12,20:13,27.90135,-84.2876,25.82,55.32,36.65,8.32,96.9,1.1
12BHM122,5/9/12,0:18,5/8/12,20:18,27.90432,-84.30257,25.83,55.36,36.69,8.33,98.8,0.9
12BHM123,5/9/12,0:23,5/8/12,20:23,27.90743,-84.31748,25.8,55.37,36.7,8.33,99.5,1.4
12BHM124,5/9/12,0:28,5/8/12,20:28,27.91047,-84.33223,25.84,55.41,36.72,8.33,99.8,1.7
12BHM125,5/9/12,0:33,5/8/12,20:33,27.91342,-84.34672,25.91,55.41,36.72,8.33,99.2,1.2
12BHM126,5/9/12,0:38,5/8/12,20:38,27.91638,-84.36097,25.89,55.4,36.72,8.33,99.3,1
12BHM127,5/9/12,0:43,5/8/12,20:43,27.91923,-84.37503,25.92,55.37,36.69,8.33,94,1
12BHM128,5/9/12,0:48,5/8/12,20:48,27.9221,-84.38898,25.89,55.4,36.72,8.33,98.8,0.3
12BHM129,5/9/12,0:53,5/8/12,20:53,27.925,-84.40297,25.82,55.43,36.74,8.33,98.8,0.5
12BHM130,5/9/12,0:58,5/8/12,20:58,27.92788,-84.41685,25.74,55.44,36.75,8.33,99.1,0.1
12BHM131,5/9/12,1:03,5/8/12,21:03,27.9308,-84.43087,25.69,55.44,36.75,8.33,99.1,1.1
12BHM132,5/9/12,1:08,5/8/12,21:08,27.9336,-84.44505,25.75,55.4,36.72,8.33,98.7,0.8
12BHM133,5/9/12,1:13,5/8/12,21:13,27.93648,-84.45902,25.73,55.44,36.75,8.33,98.3,1.4
12BHM134,5/9/12,1:18,5/8/12,21:18,27.93948,-84.47288,25.79,55.42,36.73,8.33,99.2,1.7
12BHM135,5/9/12,1:23,5/8/12,21:23,27.94227,-84.48677,25.78,55.44,36.75,8.33,99.3,0.7
12BHM136,5/9/12,1:28,5/8/12,21:28,27.94513,-84.50055,25.82,55.42,36.73,8.33,99.2,0.5
12BHM137,5/9/12,1:33,5/8/12,21:33,27.94792,-84.51433,25.86,55.42,36.73,8.33,99.4,1.1
12BHM138,5/9/12,1:38,5/8/12,21:38,27.95082,-84.52802,25.82,55.46,36.76,8.34,95.6,0.7
12BHM139,5/9/12,1:43,5/8/12,21:43,27.95362,-84.54183,25.8,55.43,36.74,8.34,98.6,1
12BHM140,5/9/12,1:48,5/8/12,21:48,27.9564,-84.55585,25.74,55.44,36.75,8.34,98.4,0.7
12BHM141,5/9/12,1:53,5/8/12,21:53,27.95942,-84.56988,25.67,55.41,36.73,8.34,98.3,1
12BHM142,5/9/12,1:58,5/8/12,21:58,27.96222,-84.584,25.81,55.39,36.71,8.35,98.3,0.2
12BHM143,5/9/12,2:03,5/8/12,22:03,27.9652,-84.59798,25.94,55.41,36.72,8.35,98.3,0.7
12BHM144,5/9/12,2:08,5/8/12,22:08,27.96798,-84.61193,26,55.33,36.66,8.35,93.2,1.1
12BHM145,5/9/12,2:13,5/8/12,22:13,27.9708,-84.62575,25.99,55.35,36.67,8.35,97.3,0.9
12BHM146,5/9/12,2:18,5/8/12,22:18,27.97363,-84.63962,26.04,55.31,36.65,8.36,97.6,2.4
12BHM147,5/9/12,2:23,5/8/12,22:23,27.9766,-84.65342,26.03,55.31,36.65,8.35,97.8,1.2
12BHM148,5/9/12,2:28,5/8/12,22:28,27.97943,-84.66722,26.03,55.32,36.65,8.36,98,1
12BHM149,5/9/12,2:33,5/8/12,22:33,27.98225,-84.68088,26.02,55.33,36.66,8.35,96.2,0.9
12BHM150,5/9/12,2:38,5/8/12,22:38,27.98495,-84.69447,25.96,55.39,36.71,8.36,96.8,0.6
12BHM151,5/9/12,2:43,5/8/12,22:43,27.98785,-84.70823,25.87,55.36,36.69,8.36,97.2,1.1
12BHM152,5/9/12,2:48,5/8/12,22:48,27.9907,-84.72215,25.79,55.36,36.69,8.36,97.6,9.6
12BHM153,5/9/12,2:53,5/8/12,22:53,27.99348,-84.73607,25.73,55.35,36.68,8.36,98,0.1
12BHM154,5/9/12,2:58,5/8/12,22:58,27.99642,-84.74965,25.59,55.39,36.72,8.36,97.8,0.6
12BHM155,5/9/12,3:03,5/8/12,23:03,27.99905,-84.76287,25.56,55.38,36.7,8.35,91.6,2.5
12BHM156,5/9/12,3:08,5/8/12,23:08,28.0018,-84.7761,25.56,55.37,36.7,8.36,97.5,0.4
12BHM157,5/9/12,3:13,5/8/12,23:13,28.00448,-84.78935,25.6,55.32,36.67,8.36,97.6,0.7
12BHM158,5/9/12,3:18,5/8/12,23:18,28.00728,-84.80233,25.67,55.32,36.66,8.35,97.8,0.3
12BHM159,5/9/12,3:23,5/8/12,23:23,28.00993,-84.8154,25.71,55.32,36.66,8.35,97.9,0.9
12BHM160,5/9/12,3:28,5/8/12,23:28,28.01258,-84.82838,25.66,55.31,36.66,8.35,97.6,4.5
12BHM161,5/9/12,3:33,5/8/12,23:33,28.01518,-84.8414,25.64,55.33,36.67,8.35,95.1,3
12BHM162,5/9/12,3:38,5/8/12,23:38,28.01787,-84.85462,25.58,55.33,36.67,8.36,97.3,0.8
12BHM163,5/9/12,3:43,5/8/12,23:43,28.02065,-84.8676,25.59,55.32,36.66,8.35,97.4,0.9
12BHM164,5/9/12,3:48,5/8/12,23:48,28.02323,-84.88057,25.61,55.32,36.66,8.36,97.5,0.5
12BHM165,5/9/12,3:53,5/8/12,23:53,28.0259,-84.8935,25.61,55.31,36.66,8.36,97.7,0.4
12BHM166,5/9/12,3:58,5/8/12,23:58,28.02857,-84.90642,25.62,55.31,36.66,8.35,94.4,1.3
12BHM167,5/9/12,4:03,5/9/12,0:03,28.03122,-84.9192,25.67,55.28,36.63,8.35,97,0.7
12BHM168,5/9/12,4:08,5/9/12,0:08,28.0338,-84.93192,25.7,55.3,36.64,8.35,96.4,0.5
12BHM169,5/9/12,4:13,5/9/12,0:13,28.03647,-84.94467,25.7,55.32,36.66,8.35,96.4,1.2
12BHM170,5/9/12,4:18,5/9/12,0:18,28.03915,-84.95735,25.69,55.33,36.67,8.35,96.9,0.6
12BHM171,5/9/12,4:23,5/9/12,0:23,28.04153,-84.97,25.64,55.39,36.71,8.35,95.3,0.5
12BHM172,5/9/12,4:28,5/9/12,0:28,28.04395,-84.98255,25.59,55.39,36.71,8.35,90.7,0.9
12BHM173,5/9/12,4:33,5/9/12,0:33,28.04632,-84.99513,25.55,55.38,36.71,8.35,96.1,0.9
12BHM174,5/9/12,4:38,5/9/12,0:38,28.04865,-85.00783,25.51,55.38,36.71,8.35,97,1
12BHM175,5/9/12,4:43,5/9/12,0:43,28.05098,-85.02068,25.43,55.39,36.72,8.35,96,0.7
12BHM176,5/9/12,4:48,5/9/12,0:48,28.05328,-85.03362,25.31,55.4,36.73,8.35,96.2,0.1
12BHM177,5/9/12,4:53,5/9/12,0:53,28.05558,-85.04663,25.22,55.41,36.74,8.35,94.1,0.6
12BHM178,5/9/12,4:58,5/9/12,0:58,28.0579,-85.05968,25.17,55.38,36.72,8.35,95.5,2.7
12BHM179,5/9/12,5:03,5/9/12,1:03,28.06025,-85.07268,25.18,55.38,36.72,8.35,96,0.7
12BHM180,5/9/12,5:08,5/9/12,1:08,28.06282,-85.08557,25.52,55.38,36.71,8.35,97.8,0.9
12BHM181,5/9/12,5:13,5/9/12,1:13,28.06553,-85.09845,25.57,55.39,36.72,8.35,97.8,1.2
12BHM182,5/9/12,5:18,5/9/12,1:18,28.06827,-85.11138,25.57,55.39,36.72,8.36,97.8,0.5
12BHM183,5/9/12,5:23,5/9/12,1:23,28.07095,-85.12442,25.66,55.39,36.72,8.36,93.1,1.2
12BHM184,5/9/12,5:28,5/9/12,1:28,28.07368,-85.13753,25.68,55.43,36.74,8.36,98,2.5
12BHM185,5/9/12,5:33,5/9/12,1:33,28.07652,-85.1507,25.76,55.41,36.73,8.35,97.9,4.9
12BHM186,5/9/12,5:38,5/9/12,1:38,28.07933,-85.16385,25.8,55.42,36.73,8.36,98,1.4
12BHM187,5/9/12,5:43,5/9/12,1:43,28.08198,-85.17712,25.85,55.46,36.76,8.35,98,1.7
12BHM188,5/9/12,5:48,5/9/12,1:48,28.0847,-85.19035,25.92,55.45,36.75,8.36,98,0.5
12BHM189,5/9/12,5:53,5/9/12,1:53,28.08755,-85.20362,25.94,55.46,36.76,8.36,94.9,3.6
12BHM190,5/9/12,5:58,5/9/12,1:58,28.09045,-85.21675,26.01,55.46,36.76,8.35,98.1,0.3
12BHM191,5/9/12,6:03,5/9/12,2:03,28.0934,-85.22985,25.99,55.49,36.78,8.35,97.8,1.6
12BHM192,5/9/12,6:08,5/9/12,2:08,28.09648,-85.24295,25.99,55.47,36.76,8.35,98,0.7
12BHM193,5/9/12,6:13,5/9/12,2:13,28.09955,-85.25617,26,55.44,36.74,8.36,98,1.2
12BHM194,5/9/12,6:18,5/9/12,2:18,28.10267,-85.26947,26.1,55.39,36.7,8.35,95.4,0.9
12BHM195,5/9/12,6:23,5/9/12,2:23,28.1059,-85.28282,26.09,55.43,36.73,8.35,97.4,0.9
12BHM196,5/9/12,6:28,5/9/12,2:28,28.10902,-85.29618,26.09,55.44,36.74,8.35,97.8,0.9
12BHM197,5/9/12,6:33,5/9/12,2:33,28.1121,-85.30957,26.06,55.45,36.75,8.35,97.7,1.5
12BHM198,5/9/12,6:38,5/9/12,2:38,28.11458,-85.32297,26,55.43,36.73,8.36,97.7,1.1
12BHM199,5/9/12,6:43,5/9/12,2:43,28.11698,-85.33635,25.97,55.4,36.71,8.36,97.5,1.1
12BHM200,5/9/12,6:48,5/9/12,2:48,28.11973,-85.34962,26.05,55.4,36.71,8.36,91.8,1.1
12BHM201,5/9/12,6:53,5/9/12,2:53,28.12242,-85.36283,26.1,55.41,36.71,8.36,97.3,0.8
12BHM202,5/9/12,6:58,5/9/12,2:58,28.12523,-85.37607,26.12,55.39,36.7,8.36,97.7,0.9
12BHM203,5/9/12,7:03,5/9/12,3:03,28.12788,-85.3892,26.05,55.38,36.7,8.36,97.8,0.7
12BHM204,5/9/12,7:08,5/9/12,3:08,28.13055,-85.40243,26,55.39,36.71,8.36,96.9,0.9
12BHM205,5/9/12,7:13,5/9/12,3:13,28.1333,-85.41577,25.96,55.37,36.69,8.36,96.6,1.9
12BHM206,5/9/12,7:18,5/9/12,3:18,28.13598,-85.42908,25.97,55.38,36.69,8.36,96.1,0.7
12BHM207,5/9/12,7:23,5/9/12,3:23,28.1388,-85.44243,25.99,55.37,36.69,8.36,97.5,0.9
12BHM208,5/9/12,7:28,5/9/12,3:28,28.14153,-85.4558,25.97,55.38,36.69,8.36,97.6,1.2
12BHM209,5/9/12,7:33,5/9/12,3:33,28.1443,-85.46903,25.89,55.37,36.69,8.35,97.3,2.1
12BHM210,5/9/12,7:38,5/9/12,3:38,28.14702,-85.48223,25.84,55.37,36.69,8.36,95.7,0.6
12BHM211,5/9/12,7:43,5/9/12,3:43,28.14972,-85.49547,25.79,55.37,36.7,8.36,91.9,2.7
12BHM212,5/9/12,7:48,5/9/12,3:48,28.15242,-85.50853,25.81,55.36,36.69,8.36,96.4,0.7
12BHM213,5/9/12,7:53,5/9/12,3:53,28.15503,-85.52182,25.8,55.38,36.7,8.36,96.5,0.5
12BHM214,5/9/12,7:58,5/9/12,3:58,28.15778,-85.53528,25.79,55.38,36.7,8.36,96.3,4
12BHM215,5/9/12,8:03,5/9/12,4:03,28.16062,-85.5489,25.72,55.38,36.7,8.36,96.8,1.3
12BHM216,5/9/12,8:08,5/9/12,4:08,28.16338,-85.56267,25.62,55.37,36.7,8.36,97,0.9
12BHM217,5/9/12,8:13,5/9/12,4:13,28.16635,-85.57633,25.54,55.37,36.7,8.36,92,1.1
12BHM218,5/9/12,8:18,5/9/12,4:18,28.16913,-85.59012,25.55,55.35,36.68,8.36,96.7,4.7
12BHM219,5/9/12,8:23,5/9/12,4:23,28.17185,-85.6039,25.56,55.36,36.69,8.36,96.9,0.6
12BHM220,5/9/12,8:28,5/9/12,4:28,28.1748,-85.61758,25.54,55.36,36.69,8.36,96.8,1.2
12BHM221,5/9/12,8:33,5/9/12,4:33,28.17762,-85.6313,25.49,55.34,36.68,8.36,96.9,2
12BHM222,5/9/12,8:38,5/9/12,4:38,28.1804,-85.645,25.43,55.34,36.68,8.36,95.6,2.8
12BHM223,5/9/12,8:43,5/9/12,4:43,28.18322,-85.65863,25.44,55.33,36.67,8.36,96.3,0.2
12BHM224,5/9/12,8:48,5/9/12,4:48,28.18592,-85.67225,25.44,55.33,36.67,8.36,96.7,0.6
12BHM225,5/9/12,8:53,5/9/12,4:53,28.18873,-85.68592,25.44,55.33,36.67,8.36,96.6,1.2
12BHM226,5/9/12,8:58,5/9/12,4:58,28.19155,-85.6997,25.45,55.31,36.66,8.36,96.6,0.8
12BHM227,5/9/12,9:03,5/9/12,5:03,28.19443,-85.71355,25.43,55.33,36.67,8.36,96.8,1
12BHM228,5/9/12,9:08,5/9/12,5:08,28.19727,-85.7274,25.46,55.32,36.66,8.36,92.4,0.7
12BHM229,5/9/12,9:13,5/9/12,5:13,28.2001,-85.74127,25.48,55.32,36.66,8.35,95.9,0.5
12BHM230,5/9/12,9:18,5/9/12,5:18,28.20297,-85.75513,25.51,55.31,36.66,8.35,96.3,0.7
12BHM231,5/9/12,9:23,5/9/12,5:23,28.20587,-85.76898,25.52,55.3,36.65,8.35,96.5,1.5
12BHM232,5/9/12,9:28,5/9/12,5:28,28.2086,-85.78293,25.52,55.31,36.65,8.35,96.4,1.2
12BHM233,5/9/12,9:33,5/9/12,5:33,28.21155,-85.7969,25.5,55.31,36.66,8.35,94.4,1.2
12BHM234,5/9/12,9:38,5/9/12,5:38,28.2144,-85.81093,25.5,55.31,36.66,8.35,95.8,0.7
12BHM235,5/9/12,9:43,5/9/12,5:43,28.2173,-85.82505,25.48,55.31,36.66,8.35,96.1,1.1
12BHM236,5/9/12,9:48,5/9/12,5:48,28.22025,-85.83923,25.46,55.3,36.65,8.35,96.3,3.3
12BHM237,5/9/12,9:53,5/9/12,5:53,28.22308,-85.85348,25.44,55.29,36.64,8.35,96.3,1.6
12BHM238,5/9/12,9:58,5/9/12,5:58,28.22603,-85.86773,25.44,55.26,36.62,8.35,96.4,0.4
12BHM239,5/9/12,10:03,5/9/12,6:03,28.22903,-85.882,25.43,55.24,36.61,8.35,90.8,1.3
12BHM240,5/9/12,10:08,5/9/12,6:08,28.23192,-85.89623,25.4,55.24,36.61,8.35,95.7,1
12BHM241,5/9/12,10:13,5/9/12,6:13,28.23487,-85.91042,25.36,55.22,36.59,8.35,96.1,0.9
12BHM242,5/9/12,10:18,5/9/12,6:18,28.23777,-85.92462,25.43,55.21,36.59,8.34,96.9,0.6
12BHM243,5/9/12,10:23,5/9/12,6:23,28.24068,-85.93883,25.48,55.18,36.56,8.34,96.8,1.5
12BHM244,5/9/12,10:28,5/9/12,6:28,28.24368,-85.95305,25.5,55.2,36.57,8.35,94.5,0.4
12BHM245,5/9/12,10:33,5/9/12,6:33,28.24655,-85.96723,25.49,55.22,36.59,8.34,94.1,0.6
12BHM246,5/9/12,10:38,5/9/12,6:38,28.24947,-85.98142,25.47,55.22,36.59,8.35,96.3,0.6
12BHM247,5/9/12,10:43,5/9/12,6:43,28.25228,-85.99562,25.41,55.24,36.61,8.35,96.4,1.2
12BHM248,5/9/12,10:48,5/9/12,6:48,28.25523,-86.00993,25.4,55.21,36.59,8.35,97.3,1
12BHM249,5/9/12,10:53,5/9/12,6:53,28.25823,-86.02432,25.42,55.21,36.58,8.35,97.3,1.4
12BHM250,5/9/12,10:58,5/9/12,6:58,28.26127,-86.03868,25.43,55.15,36.54,8.35,92.1,0.6
12BHM251,5/9/12,11:03,5/9/12,7:03,28.26407,-86.05308,25.42,55.02,36.44,8.35,96.6,1.1
12BHM252,5/9/12,11:08,5/9/12,7:08,28.26705,-86.06747,25.4,54.96,36.4,8.35,97.4,0.7
12BHM253,5/9/12,11:13,5/9/12,7:13,28.27005,-86.08183,25.39,54.94,36.39,8.35,97.7,1.3
12BHM254,5/9/12,11:18,5/9/12,7:18,28.27297,-86.0962,25.34,54.91,36.36,8.35,97.7,0.6
12BHM255,5/9/12,11:23,5/9/12,7:23,28.2759,-86.11065,25.31,54.83,36.3,8.34,97,0.8
12BHM256,5/9/12,11:28,5/9/12,7:28,28.279,-86.12512,25.22,54.77,36.26,8.35,95.4,4.7
12BHM257,5/9/12,11:33,5/9/12,7:33,28.28187,-86.13967,25.19,54.67,36.18,8.34,97.5,1.8
12BHM258,5/9/12,11:38,5/9/12,7:38,28.28493,-86.15412,25.16,54.66,36.18,8.34,97.8,1.2
12BHM259,5/9/12,11:43,5/9/12,7:43,28.28782,-86.1686,25.16,54.66,36.18,8.34,98.1,0.6
12BHM260,5/9/12,11:48,5/9/12,7:48,28.29082,-86.18308,25.13,54.68,36.19,8.34,98.1,0.4
12BHM261,5/9/12,11:53,5/9/12,7:53,28.29385,-86.1976,25.13,54.64,36.17,8.34,92.9,1.2
12BHM262,5/9/12,11:58,5/9/12,7:58,28.29678,-86.21185,25.08,54.65,36.18,8.35,97.7,3.7
12BHM263,5/9/12,12:03,5/9/12,8:03,28.29962,-86.22598,25.13,54.65,36.18,8.34,97.9,1.3
12BHM264,5/9/12,12:08,5/9/12,8:08,28.30258,-86.24018,25.15,54.65,36.18,8.34,97.9,1.7
12BHM265,5/9/12,12:13,5/9/12,8:13,28.30545,-86.25457,25.19,54.66,36.18,8.34,98.1,1.3
12BHM266,5/9/12,12:18,5/9/12,8:18,28.30838,-86.269,25.21,54.68,36.19,8.34,97.8,1.1
12BHM267,5/9/12,12:23,5/9/12,8:23,28.3114,-86.28345,25.21,54.68,36.19,8.35,93.7,1.6
12BHM268,5/9/12,12:28,5/9/12,8:28,28.31437,-86.29777,25.2,54.66,36.18,8.35,97.6,4.2
12BHM269,5/9/12,12:33,5/9/12,8:33,28.31722,-86.3118,25.21,54.66,36.18,8.34,97.5,0.8
12BHM270,5/9/12,12:38,5/9/12,8:38,28.3201,-86.32587,25.26,54.62,36.15,8.34,97.4,0.9
12BHM271,5/9/12,12:43,5/9/12,8:43,28.32302,-86.33993,25.3,54.62,36.15,8.35,97.6,1.7
12BHM272,5/9/12,12:48,5/9/12,8:48,28.3259,-86.354,25.36,54.63,36.16,8.34,94.1,5.1
12BHM273,5/9/12,12:53,5/9/12,8:53,28.32873,-86.36795,25.39,54.64,36.16,8.35,95.3,0.4
12BHM274,5/9/12,12:58,5/9/12,8:58,28.33155,-86.38183,25.34,54.71,36.21,8.35,97,0.7
12BHM275,5/9/12,13:03,5/9/12,9:03,28.33437,-86.39563,25.34,54.69,36.2,8.35,97.1,1.6
12BHM276,5/9/12,13:08,5/9/12,9:08,28.33723,-86.40938,25.33,54.71,36.21,8.35,97.6,6.1
12BHM277,5/9/12,13:13,5/9/12,9:13,28.34,-86.42305,25.33,54.76,36.25,8.35,95.7,1.1
12BHM278,5/9/12,13:18,5/9/12,9:18,28.3428,-86.4367,25.31,54.79,36.28,8.35,91.8,0.6
12BHM279,5/9/12,13:23,5/9/12,9:23,28.34552,-86.45032,25.23,54.8,36.28,8.35,96.6,1.3
12BHM280,5/9/12,13:28,5/9/12,9:28,28.34837,-86.46392,25.21,54.78,36.27,8.35,97.6,1
12BHM281,5/9/12,13:33,5/9/12,9:33,28.35112,-86.4774,25.21,54.83,36.3,8.35,97.7,3.6
12BHM282,5/9/12,13:38,5/9/12,9:38,28.35402,-86.49098,25.23,54.8,36.28,8.35,97.5,0.8
12BHM283,5/9/12,13:43,5/9/12,9:43,28.35675,-86.50465,25.23,54.81,36.29,8.35,92.6,1.2
12BHM284,5/9/12,13:48,5/9/12,9:48,28.3595,-86.51842,25.26,54.77,36.26,8.35,96.8,1